Flag for Germany Weather past 2 weeks in Gross-Gerau, Hesse, Germany

Now
50 °F

Sunny.


Feels Like: 47 °F
Forecast: 33 / 55 °F
Wind: 8 mph from West

Location: Frankfurt-M-Flughafen Airport

Current Time: Mar 27, 2015 at 6:42:47 PM

Latest Report: Mar 27, 2015 at 6:20 PM


Visibility: 10 mi

Pressure: 30.12 "Hg

Humidity: 50%

Dew point: 32 °F

Location of Gross-GerauLocation

Historic Weather in Gross-Gerau — Graph

°F

Gross-Gerau temperature yesterday

Maximum temperature yesterday: 52 °F (at 1:50 PM)
Minimum temperature yesterday: 41 °F (at 7:50 PM)
Average temperature yesterday: 46 °F

Past Weeks' High & Low Weather Summary

 TemperatureHumidityPressure
High64 °F (Mar 18, 2:50 PM)100% (Mar 21, 5:50 AM)30.33 "Hg (Mar 21, 5:50 AM)
Low28 °F (Mar 24, 3:50 AM)32% (Mar 26, 4:50 PM)29.59 "Hg (Mar 25, 2:20 PM)
Average45 °F69%30.09 "Hg
* Reported Mar 12 5:20 PM — Mar 27 5:20 PM, Gross-Gerau, Weather by CustomWeather, © 2015

Note: Actual official high and low records may vary slightly from our data, if they occured in-between our weather recording intervals... More about our weather records

Advertising

Gross-Gerau weather history for previous 24 hours

 ConditionsComfort  
Time TempWeatherWind HumidityBarometerVisibility
5:20 PM
Fri, Mar 27
50 °FPassing clouds.13 mph47%30.12 "HgN/A
4:50 PM50 °FPassing clouds.15 mph43%30.12 "HgN/A
4:20 PM50 °FPassing clouds.14 mph47%30.09 "HgN/A
3:50 PM52 °FPartly sunny.17 mph44%30.09 "HgN/A
3:20 PM50 °FPartly sunny.16 mph50%30.09 "HgN/A
2:50 PM50 °FBroken clouds.18 mph47%30.09 "HgN/A
2:20 PM50 °FBroken clouds.18 mph50%30.07 "HgN/A
1:50 PM48 °FBroken clouds.17 mph54%30.07 "HgN/A
1:20 PM48 °FSprinkles. Partly sunny.18 mph54%30.07 "HgN/A
12:50 PM50 °FPartly sunny.17 mph50%30.07 "HgN/A
12:20 PM50 °FScattered clouds.20 mph54%30.07 "HgN/A
11:50 AM50 °FScattered clouds.15 mph54%30.04 "HgN/A
11:20 AM48 °FPartly sunny.16 mph58%30.04 "HgN/A
10:50 AM48 °FPartly sunny.14 mph58%30.04 "HgN/A
10:20 AM48 °FScattered clouds.17 mph58%30.04 "HgN/A
9:50 AM46 °FScattered clouds.16 mph62%30.01 "HgN/A
9:20 AM46 °FBroken clouds.14 mph66%30.01 "HgN/A
8:50 AM45 °FScattered clouds.13 mph71%30.01 "HgN/A
8:20 AM43 °FScattered clouds.12 mph81%30.01 "HgN/A
7:50 AM43 °FScattered clouds.7 mph76%29.98 "HgN/A
7:20 AM43 °FScattered clouds.6 mph81%29.98 "HgN/A
6:50 AM41 °FPassing clouds.7 mph81%29.95 "HgN/A
6:20 AM39 °FPassing clouds.9 mph87%29.95 "HgN/A
5:50 AM41 °FPassing clouds.13 mph87%29.92 "HgN/A
5:20 AM41 °FClear.12 mph87%29.92 "Hg10 mi
4:20 AM41 °FPassing clouds.9 mph87%29.89 "HgN/A
3:50 AM41 °FPassing clouds.8 mph87%29.89 "HgN/A
3:20 AM43 °FPassing clouds.7 mph87%29.89 "HgN/A
2:50 AM43 °FPassing clouds.12 mph87%29.86 "HgN/A
2:20 AM43 °FPartly cloudy.14 mph87%29.86 "HgN/A
1:50 AM43 °FPassing clouds.12 mph81%29.86 "HgN/A
1:20 AM43 °FPassing clouds.12 mph87%29.86 "HgN/A
12:50 AM43 °FPartly cloudy.14 mph81%29.86 "HgN/A
12:20 AM43 °FPartly cloudy.12 mph87%29.83 "HgN/A
11:50 PM
Thu, Mar 26
43 °FPassing clouds.10 mph87%29.83 "HgN/A
11:20 PM41 °FOvercast.8 mph93%29.83 "HgN/A
10:20 PM41 °FLight rain. Overcast.6 mph93%29.83 "Hg5 mi
9:50 PM41 °FLight rain. Passing clouds.7 mph93%29.83 "Hg5 mi
9:20 PM41 °FLight rain. Partly cloudy.6 mph93%29.83 "HgN/A
8:50 PM41 °FLight rain. Passing clouds.6 mph87%29.83 "HgN/A
8:20 PM41 °FLight rain. Partly cloudy.6 mph87%29.83 "HgN/A
7:50 PM41 °FLight rain. Passing clouds.10 mph87%29.83 "HgN/A
7:20 PM43 °FLight rain. Passing clouds.17 mph81%29.83 "HgN/A
6:50 PM45 °FLight rain. Passing clouds.21 mph66%29.80 "HgN/A
6:20 PM50 °FBroken clouds.16 mph43%29.77 "HgN/A
Weather by CustomWeather, © 2015

See weather overviewHow to use our weather pages